CAPE
4 4 13 16 16 6 0 0 0 0 13 15 12 7 0 0 0 0 0 0 0 0 0 0 0 0 0 0 0 0 0 0 0 0 0 0 0 0 3 0 27 896 550 103 1033
6 7 7 7 5 4 9 15 5 0 0 8 17 15 7 0 0 0 0 0 0 0 0 0 0 0 0 0 0 0 0 0 0 0 0 0 14 16 7 0 14 260 183 239 1059
5 4 2 4 5 5 2 2 8 16 11 3 9 13 13 2 0 0 0 0 0 0 0 0 0 0 0 0 0 0 0 0 0 0 0 0 0 2 0 1 0 709 527 349 485
3 2 1 4 7 7 4 4 3 10 22 23 16 11 18 6 0 2 0 0 0 0 0 0 0 0 0 0 0 0 0 0 0 0 0 0 0 0 0 0 0 268 736 28 444
2 5 7 7 3 5 7 11 13 15 17 35 43 32 17 6 0 0 0 0 0 0 0 0 0 0 0 0 0 0 0 0 0 0 0 0 0 3 0 0 0 163 1838 1689 1374
2 6 9 12 14 14 13 13 11 11 11 6 23 31 36 2 0 0 0 0 0 0 0 0 0 0 0 0 0 0 0 0 0 0 0 0 0 0 0 0 21 1707 1508 1512 1544
7 13 18 19 20 23 18 25 26 26 26 19 7 25 26 2 0 0 0 0 0 0 5 1 1 0 0 0 0 0 0 0 0 0 0 0 0 0 0 0 0 534 122 132 711
9 15 15 17 13 7 7 6 13 23 28 20 14 20 15 0 0 0 0 0 0 0 4 7 2 1 0 0 0 0 0 0 0 0 0 0 0 0 0 1 0 216 4 0 13
7 11 9 8 6 9 9 2 1 9 23 33 20 18 0 0 0 0 0 0 16 24 16 9 9 17 14 3 0 0 0 0 0 0 0 0 0 0 0 0 15 1 50 0 1603
6 6 3 3 6 6 2 0 0 0 1 18 11 2 0 0 0 1 0 0 6 11 24 5 12 21 21 1 0 0 0 0 0 0 0 0 0 0 0 0 0 0 319 933 1656
7 3 2 0 0 0 0 0 0 0 8 3 2 0 0 0 111 62 2 0 0 5 7 21 9 1 0 0 0 0 0 0 0 0 0 0 0 0 0 0 0 46 287 1233 251
2 2 0 0 0 0 0 0 0 0 0 0 2 1 0 0 45 123 2 19 29 9 17 18 0 0 5 0 0 0 0 0 0 0 0 0 3 3 2 4 1 273 146 100 304
0 0 0 0 0 0 0 0 0 0 2 5 32 31 0 0 17 0 28 41 40 27 25 18 0 8 3 0 0 0 0 0 0 0 21 0 0 9 8 7 0 391 36 0 0
0 0 0 0 0 0 0 0 5 0 1 0 1 20 15 6 1 0 0 38 32 10 24 4 4 5 6 9 0 0 0 3 20 36 17 8 0 10 22 17 21 61 0 0 0
0 0 0 0 0 2 0 0 0 0 2 0 2 0 22 3 15 3 8 31 15 3 0 0 0 0 0 0 0 0 6 36 24 15 35 9 30 19 26 36 0 96 0 0 0
0 0 0 0 0 2 0 0 0 0 0 1 2 7 4 7 4 2 2 0 19 0 0 0 0 0 0 0 0 0 6 55 0 24 1 25 28 43 38 25 19 106 2 0 1
0 0 0 0 0 0 2 1 1 0 0 0 0 9 4 1 8 9 2 2 8 0 0 0 0 0 0 0 0 0 0 7 24 8 0 26 27 50 22 53 22 50 33 24 1
0 0 0 0 0 0 0 1 1 3 1 0 14 0 9 0 0 0 0 0 0 0 0 4 2 0 0 0 0 0 0 2 35 0 18 19 13 21 42 0 8 145 121 106 87
0 0 0 0 0 0 14 3 1 2 7 7 0 1 3 4 0 1 2 3 23 0 3 0 0 0 0 0 0 0 0 18 71 30 37 0 10 6 28 8 2 63 167 259 152
0 0 0 0 0 5 1 0 5 1 4 5 1 9 20 17 4 3 21 26 13 0 0 4 0 0 0 0 0 6 4 23 55 34 37 86 94 31 27 13 0 0 4 178 126
0 0 0 0 0 19 2 3 2 0 4 1 6 21 14 56 5 1 73 57 48 7 29 33 6 0 0 0 0 0 1 73 3 50 107 28 57 151 51 26 1 0 0 1 192
0 0 0 0 0 0 1 0 6 3 8 0 1 21 57 97 3 41 56 6 5 1 44 10 5 0 0 0 0 0 7 22 103 52 139 184 71 29 32 14 0 0 0 0 0
0 0 0 0 0 9 1 2 3 0 1 1 2 23 113 266 11 16 14 1 1 0 0 65 2 0 0 0 0 0 0 7 0 0 137 124 15 0 5 0 0 0 0 0 0
0 0 0 0 0 0 11 2 2 3 0 2 5 29 29 171 7 25 8 0 2 33 22 30 29 0 0 0 0 0 0 0 1 0 1 210 2 50 116 15 56 23 30 36 24
0 0 0 0 0 0 12 13 4 3 0 3 17 6 7 28 74 21 64 0 0 0 0 173 333 0 0 0 0 0 0 0 0 0 37 40 94 169 175 62 77 83 71 344 258
0 0 0 0 0 0 1 0 4 0 0 0 2 2 3 6 36 94 55 179 0 0 1 163 180 20 0 0 0 0 0 0 0 0 8 9 227 367 171 170 145 456 752 908 266
0 0 0 0 0 0 0 0 0 8 4 2 0 0 24 16 3 0 25 192 542 370 0 97 38 109 17 0 0 0 0 0 0 0 14 3 66 1 24 509 799 539 262 70 10
CIN
0 0 0 0 0 0 0 0 0 0 0 -1 -7 -9 -1 0 0 0 0 0 0 0 0 0 0 0 0 0 0 0 0 0 0 0 0 0 -2 0 -18 0 -5 -217 -192 -206 -29
0 0 0 0 0 0 0 0 0 0 0 -1 -6 -5 -9 0 0 0 0 0 0 0 0 0 0 0 0 0 0 0 0 0 0 0 0 0 -29 -6 -22 0 -4 -321 -396 -186 -119
0 0 0 0 0 0 0 0 0 0 0 -1 -2 -6 -5 -9 0 0 0 0 0 0 0 0 0 0 0 0 0 0 0 0 0 0 0 0 0 -68 -5 -2 0 -199 -241 -286 -119
0 0 0 0 0 0 0 0 0 0 0 0 -3 -4 -5 -1 0 -1 0 0 0 0 0 0 0 0 0 0 0 0 0 0 0 0 0 0 0 0 0 0 -6 -29 -207 -349 -198
0 0 0 0 0 -1 0 0 0 0 0 0 -2 -3 -2 0 0 0 0 0 0 0 0 0 0 0 0 0 0 0 0 0 0 0 0 0 0 0 0 0 0 -6 -22 -59 -59
0 0 0 0 -1 -2 -3 -2 -3 -4 -3 -6 -1 -4 0 0 0 0 0 0 0 0 0 0 0 0 0 0 0 0 0 0 0 0 0 0 0 0 0 0 -21 -67 -40 -19 -48
-1 -1 0 0 0 0 0 0 -4 -4 -4 -2 0 -1 0 -1 0 0 0 0 0 0 -1 -2 -2 0 0 0 0 0 0 0 0 0 0 0 0 0 0 0 0 -160 -271 -258 -84
-1 0 0 0 0 0 0 0 -1 0 0 0 0 -1 -1 0 0 0 0 0 -1 0 -6 -5 -1 -1 -1 0 0 0 0 0 0 0 0 0 0 0 0 -7 0 -225 -176 0 -187
0 0 0 0 0 0 0 0 0 0 0 0 -1 -1 0 0 0 0 0 0 -6 -2 -8 -18 -8 -4 -4 -4 0 0 0 0 0 0 0 0 0 0 0 0 -57 -1 -261 0 -18
0 0 0 0 0 0 -1 0 0 0 -7 0 -3 -2 0 0 0 -4 0 -3 -9 -19 -3 -17 -3 -4 -4 -4 0 0 0 0 0 0 0 0 0 0 0 0 0 0 -2 -28 -14
0 0 0 0 0 0 0 0 0 0 -1 -2 -1 0 0 0 -17 -5 -1 0 -1 -25 -8 -2 -3 -3 0 0 0 0 0 0 0 0 0 0 0 0 0 0 0 -51 -1 -50 -82
0 0 0 0 0 0 0 0 0 0 0 -1 -1 -9 0 0 -12 -7 -2 -3 -2 -3 -3 -4 -3 0 -4 0 0 0 0 0 0 0 -1 0 -5 -7 -4 -3 -1 -24 -182 -277 -129
0 0 0 0 0 0 0 0 0 -1 -1 -1 -2 -3 -2 0 -1 0 -28 -2 -2 -1 -3 -2 -1 -7 -5 0 0 0 0 0 0 -1 -24 0 0 -5 -15 -18 0 -134 -205 0 0
0 0 0 0 0 0 -1 0 -3 -1 0 0 -1 -3 -5 -7 -5 0 -1 -2 -2 -6 -1 -2 -7 -4 -2 -5 0 0 0 -19 -8 -14 -39 -18 -1 -9 -18 -32 -10 -105 0 0 0
0 0 0 0 0 -2 0 0 0 0 0 0 -1 0 -8 -14 -1 -8 -22 -9 -2 -27 0 0 0 0 0 0 -1 0 -36 -97 -13 -69 -11 -61 -2 -5 -10 -34 0 -104 0 0 0
0 0 0 0 -11 -4 -1 0 0 0 0 0 -9 -2 -4 -2 0 0 -5 0 -13 -4 0 0 0 0 -3 0 0 0 -82 -55 0 -32 -6 -51 -9 -2 -15 -15 -55 -20 -111 0 -15
0 0 0 0 0 -1 -2 -1 -1 0 0 -1 0 -3 -1 0 -1 -1 -1 0 -2 -1 -2 0 0 0 0 -6 0 0 0 -53 -18 -26 -73 -35 -19 -5 -31 -17 -32 -36 -81 -182 -17
0 0 0 0 0 0 0 -1 0 0 0 0 -2 -1 -2 0 0 0 -2 -2 0 0 0 -4 -4 0 0 0 0 -1 0 -16 -23 0 -87 -64 -28 -22 -22 0 -2 -26 -38 -42 -41
0 0 0 0 0 0 -3 -2 0 0 0 0 0 0 -2 -15 -2 -1 0 -17 -25 -2 -16 0 0 0 0 0 0 0 0 -43 -27 -80 -43 -2 -24 -62 -13 -29 -32 -1 -3 -17 -32
0 0 0 0 0 -10 -1 -2 -1 -1 -1 -3 0 -1 -3 -2 -7 -12 -10 -9 -3 0 -19 -12 0 0 0 0 0 -39 -18 -24 -27 -8 -19 -6 -22 -33 -26 -49 0 0 -3 -1 -13
0 0 0 0 0 -4 -2 -2 -2 0 -1 -2 -1 -1 -15 -7 -5 -59 -3 -31 -21 -29 -39 -24 -1 0 0 0 0 0 -30 -14 -34 -26 -11 -18 -24 -5 -32 -83 -64 0 -27 -3 -6
0 0 0 0 0 0 -2 0 -1 -2 0 0 0 -3 -21 -2 -3 -4 -2 -9 -9 -28 -3 -53 -2 0 0 0 0 -3 -142 -154 -30 -108 -36 -6 -48 -140 -13 -43 -7 0 0 0 -1
0 0 0 0 0 -3 -1 -3 -1 0 -1 0 0 -5 -20 -3 -5 -7 -10 -10 -23 -2 0 -31 -21 0 0 0 0 0 0 -83 0 0 -6 -45 -129 -1 -49 0 0 0 0 0 0
0 0 0 0 -1 0 -2 -2 -1 -1 0 0 -7 -45 -105 -26 -14 -4 -4 0 -31 -10 -37 -15 -2 0 0 0 0 0 0 0 -6 0 -10 -4 -21 -3 -2 -18 -4 -6 -11 -12 -20
0 0 0 0 0 0 -3 -3 -1 0 0 -1 -17 -52 -71 -29 -11 -4 -26 0 0 -10 0 -9 -5 0 0 0 0 0 0 0 0 0 -16 -76 -19 -5 -17 -16 -17 -30 -17 -12 -9
0 0 0 0 0 0 -10 0 -2 0 -1 0 0 -1 -42 -32 -1 -1 -18 -8 0 0 -65 -2 -11 -10 0 -3 0 0 0 0 0 0 -3 -40 -18 -52 -76 -48 -2 -10 -15 -23 -33
0 0 0 0 0 0 0 0 0 -3 -1 -1 0 -1 -7 -2 -1 0 -90 -48 -21 -14 0 -15 -34 -7 -8 -4 0 0 0 0 0 0 -92 -98 -49 -52 -29 -4 -34 -92 -169 -217 -124
Wind_Speed
29 29 31 30 30 29 31 33 34 34 34 34 34 35 36 37 39 40 42 34 31 27 30 34 31 30 29 33 32 32 42 49 50 49 53 46 41 39 23 35 25 15 10 11 16
27 28 27 28 28 29 30 30 31 33 34 34 35 34 35 36 42 47 43 41 36 25 30 28 30 30 32 30 33 34 42 51 46 48 48 50 44 39 23 35 21 12 8 2 25
28 28 28 28 29 29 31 34 36 36 35 35 35 35 33 35 41 34 19 23 32 28 31 33 33 32 34 32 32 36 48 42 49 50 48 51 48 52 35 40 28 13 8 13 20
28 29 29 30 31 32 34 34 35 35 36 36 34 34 33 33 34 18 16 20 27 27 29 31 33 34 36 38 32 38 44 48 44 48 48 51 48 45 46 44 29 18 14 14 18
31 31 31 32 34 36 34 34 35 36 37 37 36 34 34 38 40 31 26 22 19 19 28 31 34 33 39 35 34 40 43 44 49 45 49 49 50 37 53 52 41 26 17 17 16
32 33 34 35 36 35 34 34 33 32 32 31 33 33 36 50 37 36 37 36 27 20 28 32 33 34 35 39 37 36 40 45 44 49 47 49 48 41 41 50 39 10 17 21 22
34 36 35 37 35 34 33 29 27 25 22 20 21 20 29 43 37 34 30 31 33 29 30 29 34 33 35 37 38 40 42 41 46 45 51 46 48 48 33 50 46 17 24 28 42
37 37 36 37 35 32 30 23 14 16 17 17 19 21 28 33 37 42 41 38 28 30 32 33 28 36 38 34 37 40 40 44 45 44 50 48 50 49 40 37 47 19 21 22 31
37 36 36 35 33 31 22 13 12 14 12 13 15 11 23 26 26 35 32 31 23 26 27 28 33 34 34 37 37 36 42 44 43 44 44 48 47 51 44 44 36 40 18 23 47
38 37 35 33 31 27 24 10 15 16 14 13 9 11 4 20 23 18 23 28 25 26 28 29 27 32 36 35 41 36 37 38 45 41 46 44 44 44 45 46 37 39 33 23 6
38 35 34 32 29 25 26 21 25 24 15 16 13 10 6 11 18 16 11 23 24 26 31 27 32 37 36 35 37 35 33 36 35 38 43 47 43 41 43 42 37 41 34 20 28
37 35 33 30 28 21 17 31 27 19 19 8 8 8 9 11 13 14 11 18 24 32 27 25 37 30 30 33 36 38 35 35 31 37 42 47 47 42 37 39 39 37 25 19 21
36 33 29 27 24 19 24 29 23 16 16 17 9 8 14 17 11 20 23 16 19 24 28 29 26 29 29 33 35 37 38 34 44 35 39 42 53 46 38 38 45 34 30 23 19
34 29 25 27 23 23 25 22 21 17 19 15 13 15 14 16 10 14 18 21 17 24 23 28 28 25 29 34 30 37 39 41 45 39 46 40 50 49 45 36 41 34 34 33 27
31 28 23 21 23 26 23 20 21 17 26 10 14 13 19 15 15 15 18 20 24 16 17 21 22 23 30 35 32 36 35 44 47 42 48 41 49 44 45 42 39 20 24 22 16
28 25 25 25 17 22 25 19 18 20 25 18 15 15 17 15 13 21 20 21 18 23 29 26 26 31 40 40 45 41 40 33 42 38 49 40 48 39 44 42 41 26 20 19 20
24 21 21 18 26 19 19 18 20 29 13 15 17 18 18 17 23 25 27 28 24 26 33 28 35 41 30 30 44 39 36 27 39 35 41 43 38 41 36 38 38 30 21 20 20
23 16 19 16 18 19 17 18 29 19 20 16 13 16 14 23 20 26 28 25 26 30 21 25 21 32 34 36 40 32 29 26 34 29 34 38 43 43 29 38 33 32 27 21 16
24 21 26 24 19 17 16 27 22 16 14 12 3 17 16 17 22 25 20 21 25 32 20 26 21 34 38 34 35 34 34 25 24 20 28 25 39 36 37 30 29 28 19 23 21
26 22 28 23 17 17 27 22 21 12 10 12 14 13 16 18 19 20 19 18 25 18 23 21 11 33 35 33 36 33 31 31 32 29 28 28 22 30 24 29 32 28 27 14 15
24 24 32 24 14 20 28 23 15 13 14 14 14 12 13 15 19 18 18 20 22 23 17 15 15 20 35 38 36 38 33 33 36 28 36 25 26 17 14 20 18 26 26 43 12
27 29 29 26 36 30 29 21 13 14 15 13 9 9 11 13 18 17 18 20 28 24 21 23 18 31 39 38 34 37 40 40 24 30 24 34 20 26 14 14 15 21 29 21 9
29 27 25 21 33 32 29 26 21 26 18 13 11 10 13 14 14 11 18 9 9 15 19 17 20 24 18 37 38 37 37 42 25 18 22 21 21 12 7 8 12 18 22 20 17
28 31 30 25 28 28 27 25 25 22 20 10 10 17 17 13 18 17 8 12 7 9 10 19 22 30 34 36 33 38 38 38 34 14 25 15 17 17 7 5 2 8 8 9 13
31 30 31 29 29 23 22 23 26 23 21 22 12 20 16 15 15 19 12 7 21 15 18 18 23 24 23 28 32 33 33 35 34 26 8 20 12 8 2 5 5 5 7 8 9
33 31 29 25 23 23 22 25 22 22 17 23 23 22 20 19 17 16 22 19 28 23 25 19 21 22 19 33 21 31 33 32 30 28 13 13 4 1 1 3 3 2 5 6 4
31 26 25 26 27 25 26 21 19 22 15 23 26 25 24 23 24 25 23 24 24 23 28 25 20 23 30 8 30 36 35 29 32 30 16 12 9 7 3 6 2 2 5 7 8
Wind_Direction
7 3 358 355 351 346 339 331 326 323 320 317 315 310 306 301 294 285 275 275 273 279 272 265 264 263 259 253 251 248 248 246 243 241 237 239 244 250 264 252 277 282 262 246 237
12 7 2 357 353 348 343 338 331 323 318 315 313 311 308 304 292 280 277 269 267 275 267 261 259 257 253 252 249 243 246 245 246 245 244 240 247 245 265 251 269 272 284 327 248
9 5 1 356 351 345 338 331 326 321 317 313 310 308 308 307 294 289 311 283 266 262 261 259 258 256 251 248 245 245 247 250 247 245 246 243 247 241 266 253 256 256 243 165 169
7 2 358 353 347 342 336 331 326 322 318 313 308 304 303 297 282 295 315 304 282 256 255 255 253 251 250 247 249 250 251 249 250 247 247 246 251 248 244 254 261 246 190 191 175
3 359 354 349 344 339 335 331 326 321 316 313 308 303 296 281 272 289 297 299 297 253 249 249 248 250 248 252 250 250 251 251 248 249 247 247 247 257 234 235 259 264 206 205 203
1 356 351 346 342 338 335 331 328 324 322 315 310 304 289 276 283 279 278 274 272 264 253 249 250 250 255 251 250 252 254 251 249 246 247 244 246 253 237 233 248 228 228 233 224
359 354 351 347 343 341 339 338 337 337 336 334 324 318 298 278 281 280 275 270 263 258 255 253 250 250 251 254 253 253 253 252 247 244 242 245 246 242 251 233 251 238 240 238 249
359 355 352 350 348 347 344 345 346 343 341 338 331 320 301 295 277 266 263 266 261 254 255 255 253 251 250 255 254 250 252 249 244 243 238 243 243 238 241 237 235 247 247 257 257
0 357 356 355 354 351 354 356 3 2 360 358 351 342 326 307 276 261 257 254 257 255 255 255 254 247 247 248 248 246 245 245 245 239 238 240 241 237 241 247 251 250 237 187 178
3 1 1 0 358 1 5 27 29 30 32 39 45 37 178 238 286 270 249 248 247 254 253 248 249 245 241 239 238 239 240 244 242 235 236 238 241 239 240 241 249 252 253 255 210
5 5 7 6 13 22 22 26 17 25 46 48 64 145 237 256 242 271 243 234 237 248 243 242 241 237 235 240 245 248 243 243 241 236 234 235 237 241 239 238 244 248 250 242 240
8 9 11 17 23 34 49 27 27 35 37 93 108 130 161 186 153 256 213 230 235 236 240 241 239 242 244 246 245 246 241 241 242 234 233 232 238 238 245 235 238 243 255 262 270
9 12 16 22 26 40 35 30 38 47 62 66 93 157 149 162 160 211 214 227 233 233 235 238 249 246 247 245 240 240 240 239 236 233 237 233 236 237 239 240 241 245 254 259 269
11 13 17 20 33 38 36 39 43 62 69 66 85 116 147 163 185 221 217 221 239 234 239 249 252 245 244 243 234 238 238 242 229 232 230 232 232 235 234 234 242 247 248 253 264
10 16 20 28 32 35 39 48 48 76 67 74 98 136 91 152 181 217 218 221 217 233 243 251 248 241 238 239 228 234 233 226 231 235 230 234 236 229 234 231 241 244 242 235 235
10 17 24 36 41 37 34 50 54 75 65 79 100 112 114 118 171 187 207 207 223 214 219 237 231 218 207 217 214 214 216 229 233 231 236 230 236 233 230 227 232 243 238 226 218
5 16 27 33 31 42 45 50 61 52 72 80 86 98 104 117 121 139 159 175 190 197 173 206 201 192 229 222 209 212 221 223 223 231 233 231 236 237 234 228 231 231 223 221 222
2 11 31 36 32 46 48 54 37 58 67 80 100 96 109 104 126 136 142 166 170 176 216 208 223 220 210 214 208 215 220 221 220 229 235 233 238 233 230 235 237 236 233 230 233
10 31 36 39 41 42 41 42 49 65 69 76 155 87 99 122 96 132 162 161 166 171 213 206 225 202 202 212 216 219 224 224 228 226 231 231 237 236 236 234 248 240 237 223 230
20 31 32 33 40 36 43 46 41 70 75 85 79 107 101 111 124 124 138 148 169 225 168 223 241 201 207 211 216 221 224 224 233 231 236 231 234 233 218 235 244 246 256 214 214
30 31 29 32 40 42 37 40 44 55 59 87 87 108 114 128 124 113 106 170 181 176 231 264 241 218 208 207 210 216 229 235 225 240 239 242 237 242 188 224 235 227 234 225 222
28 27 27 33 33 36 33 35 44 338 55 84 116 140 131 127 126 116 141 189 155 160 203 217 233 206 191 206 214 206 207 211 237 236 255 238 246 256 212 227 226 231 237 254 272
22 22 35 35 28 26 31 34 41 3 359 70 91 176 238 218 128 65 138 81 286 138 214 250 230 210 221 209 217 214 207 196 233 267 243 236 236 258 234 218 234 245 252 258 265
21 19 21 24 27 21 25 30 30 22 341 333 197 266 286 200 152 147 79 283 291 313 278 240 224 203 192 191 209 207 213 215 213 242 225 234 220 227 190 188 238 226 254 266 264
20 20 19 14 15 17 22 26 23 27 345 303 330 293 264 178 228 166 278 36 170 268 245 236 223 224 228 219 214 219 222 224 226 238 276 209 189 210 195 188 233 254 250 276 282
15 14 13 6 14 10 25 18 19 19 18 304 289 270 258 225 266 242 226 246 183 212 214 233 224 228 238 214 230 223 227 231 234 240 264 262 283 287 260 292 161 248 257 295 320
14 16 11 8 7 10 11 10 12 9 29 308 286 266 255 280 268 247 235 228 221 233 209 217 232 220 186 157 211 200 217 230 225 232 255 245 260 213 175 240 344 0 290 292 302